DELTA 1 DEB, 21295

Orbit data source: Space-Track

DELTA 1 DEB, 21295 is space debris in SSO originally from a launch on Thu, 12 Jun 1975 UTC launched from the Air Force Western Test Range (AFWTR). Debris objects in space refer to the collection of defunct objects orbiting the Earth. Examples of debris include non-operational satellites, rocket bodies, and fragments generated from explosions, collisions, or faulty payload assembly.

Loading next visibility...
Identifier
21295, 1975-052AG
Orbit
SSO
Country
Flag of USUS
Related business
Manufacturer
Unknown
Mission
Spacecraft
Bus & Motor
Unknown
Mass
Unknown
Launch date (UTC)
1975-06-12 (50 years ago)
Launch vehicle
Unknown
Launch site
Air Force Western Test Range (AFWTR)
Object type
Payload
Rocket body
Debris
Shape & HBR
Unknown
Radar Cross Section
Small (<0.1 m²)

Expand to show TLE details & history
Last TLE update: 12 hours ago

TLE from 12 hours ago
0 DELTA 1 DEB
1 21295U 75052AG  25259.08606546  .00000170  00000-0  37390-3 0  9999
2 21295  99.7424  90.1066 0018897 268.9337 216.4051 13.42845564680970
Epoch: 2025-09-16T02:03Z
TLE epoch observation values (Epoch: 2025-09-16T02:03:56.055Z)
Latitude
53.73247°
Longitude
-102.69544°
Altitude
1,118.797 km
Speed
7.293 km/s
True Right ascension
18h 54m 16s
True Declination
53° 34' 34"
Sunlit
Object was in daylight at epoch
Visualization orbit readout
Latitude
Unknown
Longitude
Unknown
Altitude
Unknown
Speed
Unknown
Apparent Right ascension
Unknown
Apparent Declination
Unknown
Sunlit
N/A
Visualization observer readout
Local Sidereal Time
06:35:36
Azimuth
Unknown
Elevation
Unknown
Doppler factor
Unknown
Orbital elements
Apogee altitude
1,110.135 km
Perigee altitude
1,081.887 km
Semi-major axis
7,474.148 km
Eccentricity
0.00189
Inclination
99.7424°
RAAN
90.1066°
Arg. of periapsis
268.9337°
True anomaly
216.27683°
Mean anomaly
216.4051°
Eccentric anomaly
216.34094°
Mean motion
3.35893 °/min
Orbital period
107.18 mins
BSTAR
0.0003739
Loading maneuver chart data...
Computing Atmospheric mass density...
Loading historical data...
Loading historical data...
Loading historical data...
Loading historical data...
Loading historical data...
Loading historical data...
Loading historical data...

Documentation

Showing up to 5 results
|